STARLINK-31205, 59046

Orbit data source: Space-Track

STARLINK-31205, 59046 is a payload satellite owned by SpaceX/Seattle (US) in LEO that was launched on Sun, 25 Feb 2024 UTC via an FALCON 9 launch vehicle from the Air Force Eastern Test Range (AFETR). Payload-class satellites include a variety of spacecraft equipped with specific instruments for various scientific and technological missions. These include communications satellites like Starlink; space stations such as the ISS; scientific satellites like the Hubble; Earth observation satellites from companies like Planet Labs, Umbra, and HawkEye 360; GPS; miniature CubeSats for education and research; and military/defense satellites.

Loading next visibility...
Identifier
59046, 2024-038Z
Orbit
LEO
Country
Flag of USUS
Related business
Manufacturer
SpaceX/Seattle
Mission
Operational Commercial Communications
Bus & Motor
STARLINK V2M, Unknown motor
Mass
730 kg wet, ~700 kg dry
Launch date (UTC)
2024-02-25 (2 years ago)
Launch vehicle
FALCON 9
Launch site
Air Force Eastern Test Range (AFETR)
Object type
Payload
Rocket body
Debris
Shape & HBR
Box + 2 Pan, 17.7 m
Radar Cross Section
33.884 m², Large (>1 m²)

Expand to show TLE details & history
Last TLE update: 16 hours ago

TLE from 16 hours ago
0 STARLINK-31205
1 59046U 24038Z   25348.92872005 -.00001418  00000-0 -42018-4 0  9991
2 59046  42.9987 142.3777 0001343 266.6601  93.4097 15.27569660101836
Epoch: 2025-12-14T22:17Z
TLE epoch observation values (Epoch: 2025-12-14T22:17:21.412Z)
Latitude
-0.00001°
Longitude
84.20388°
Altitude
482.91 km
Speed
7.626 km/s
True Right ascension
09h 29m 30s
True Declination
0° 00' 00"
Sunlit
Object was in full shadow at epoch
Visualization orbit readout
Latitude
Unknown
Longitude
Unknown
Altitude
Unknown
Speed
Unknown
Apparent Right ascension
Unknown
Apparent Declination
Unknown
Sunlit
N/A
Visualization observer readout
Local Sidereal Time
13:19:55
Azimuth
Unknown
Elevation
Unknown
Doppler factor
Unknown
Orbital elements
Apogee altitude
485.947 km
Perigee altitude
484.104 km
Semi-major axis
6,863.162 km
Eccentricity
0.00013
Inclination
42.9987°
RAAN
142.3777°
Arg. of periapsis
266.6601°
True anomaly
93.42506°
Mean anomaly
93.4097°
Eccentric anomaly
93.41738°
Mean motion
3.8173 °/min
Orbital period
94.31 mins
BSTAR
-0.000042018
Loading maneuver chart data...
Computing Atmospheric mass density...
Loading historical data...
Loading historical data...
Loading historical data...
Loading historical data...
Loading historical data...
Loading historical data...
Loading historical data...

Documentation

Showing up to 5 results
|